Time,TemperatureF,DewpointF,PressureIn,WindDirection,WindDirectionDegrees,WindSpeedMPH,WindSpeedGustMPH,Humidity,HourlyPrecipIn,Conditions,Clouds,dailyrainin,SolarRadiationWatts/m^2,SoftwareType,DateUTC
2013-07-29 00:02:00,65.0,61.0,-100.00,SSW,197,0.0,3.0,86,0.00,,,0.00,0.000000,,2013-07-29 04:02:00,
2013-07-29 00:33:00,64.0,61.0,-100.00,South,187,0.0,2.0,89,0.00,,,0.00,0.000000,,2013-07-29 04:33:00,
2013-07-29 00:43:00,64.0,61.0,-100.00,South,187,0.0,2.0,89,0.00,,,0.00,0.000000,,2013-07-29 04:43:00,
2013-07-29 00:53:00,64.0,61.0,-100.00,South,187,0.0,2.0,89,0.00,,,0.00,0.000000,,2013-07-29 04:53:00,
2013-07-29 01:02:00,64.0,61.0,-100.00,South,187,0.0,2.0,89,0.00,,,0.00,0.000000,,2013-07-29 05:02:00,
2013-07-29 01:32:00,63.0,60.0,-100.00,South,182,0.0,2.0,90,0.00,,,0.00,0.000000,,2013-07-29 05:32:00,
2013-07-29 01:43:00,63.0,60.0,-100.00,South,182,0.0,2.0,90,0.00,,,0.00,0.000000,,2013-07-29 05:43:00,
2013-07-29 01:53:00,63.0,60.0,-100.00,South,182,0.0,2.0,90,0.00,,,0.00,0.000000,,2013-07-29 05:53:00,
2013-07-29 02:02:00,63.0,60.0,-100.00,South,182,0.0,2.0,90,0.00,,,0.00,0.000000,,2013-07-29 06:02:00,
2013-07-29 02:33:00,63.0,60.0,-100.00,WSW,244,0.0,3.0,90,0.00,,,0.00,0.000000,,2013-07-29 06:33:00,
2013-07-29 02:43:00,63.0,60.0,-100.00,WSW,244,0.0,3.0,90,0.00,,,0.00,0.000000,,2013-07-29 06:43:00,
2013-07-29 02:52:00,63.0,60.0,-100.00,WSW,244,0.0,3.0,90,0.00,,,0.00,0.000000,,2013-07-29 06:52:00,
2013-07-29 03:03:00,63.0,60.0,-100.00,WSW,244,0.0,3.0,90,0.00,,,0.00,0.000000,,2013-07-29 07:03:00,
2013-07-29 03:33:00,62.0,59.0,-100.00,WSW,255,2.0,4.0,90,0.00,,,0.00,0.000000,,2013-07-29 07:33:00,
2013-07-29 03:43:00,62.0,59.0,-100.00,WSW,255,2.0,4.0,90,0.00,,,0.00,0.000000,,2013-07-29 07:43:00,
2013-07-29 03:53:00,62.0,59.0,-100.00,WSW,255,2.0,4.0,90,0.00,,,0.00,0.000000,,2013-07-29 07:53:00,
2013-07-29 04:02:00,62.0,59.0,-100.00,WSW,255,2.0,4.0,90,0.00,,,0.00,0.000000,,2013-07-29 08:02:00,
2013-07-29 04:33:00,60.0,59.0,-100.00,SSW,213,0.0,3.0,95,0.00,,,0.00,0.000000,,2013-07-29 08:33:00,
2013-07-29 04:42:00,60.0,59.0,-100.00,SSW,213,0.0,3.0,95,0.00,,,0.00,0.000000,,2013-07-29 08:42:00,
2013-07-29 04:52:00,60.0,59.0,-100.00,SSW,213,0.0,3.0,95,0.00,,,0.00,0.000000,,2013-07-29 08:52:00,
2013-07-29 05:02:00,60.0,59.0,-100.00,SSW,213,0.0,3.0,95,0.00,,,0.00,0.000000,,2013-07-29 09:02:00,
2013-07-29 05:33:00,59.0,58.0,-100.00,SSW,197,0.0,3.0,96,0.00,,,0.00,0.000000,,2013-07-29 09:33:00,
2013-07-29 05:43:00,59.0,58.0,-100.00,SSW,197,0.0,3.0,96,0.00,,,0.00,0.000000,,2013-07-29 09:43:00,
2013-07-29 05:53:00,59.0,58.0,-100.00,SSW,197,0.0,3.0,96,0.00,,,0.00,0.000000,,2013-07-29 09:53:00,
2013-07-29 06:05:00,57.0,56.0,-100.00,SW,223,0.0,2.0,97,0.00,,,0.00,0.000000,,2013-07-29 10:05:00,
2013-07-29 06:39:00,57.0,56.0,-100.00,SW,223,0.0,2.0,97,0.00,,,0.00,0.000000,,2013-07-29 10:39:00,
2013-07-29 06:50:00,57.0,56.0,-100.00,SW,223,0.0,2.0,97,0.00,,,0.00,0.000000,,2013-07-29 10:50:00,
2013-07-29 06:55:00,57.0,56.0,-100.00,SW,223,0.0,2.0,97,0.00,,,0.00,0.000000,,2013-07-29 10:55:00,
2013-07-29 07:05:00,57.0,56.0,-100.00,South,181,1.0,2.0,96,0.00,,,0.00,5.000000,,2013-07-29 11:05:00,
2013-07-29 07:38:00,57.0,56.0,-100.00,South,181,1.0,2.0,96,0.00,,,0.00,5.000000,,2013-07-29 11:38:00,
2013-07-29 07:59:00,57.0,56.0,-100.00,South,181,1.0,2.0,96,0.00,,,0.00,5.000000,,2013-07-29 11:59:00,
2013-07-29 08:37:00,62.0,59.0,-100.00,SE,131,0.0,2.0,89,0.00,,,0.00,64.000000,,2013-07-29 12:37:00,
2013-07-29 08:49:00,62.0,59.0,-100.00,SE,131,0.0,2.0,89,0.00,,,0.00,64.000000,,2013-07-29 12:49:00,
2013-07-29 08:58:00,62.0,59.0,-100.00,SE,131,0.0,2.0,89,0.00,,,0.00,64.000000,,2013-07-29 12:58:00,
2013-07-29 09:04:00,62.0,59.0,-100.00,SE,131,0.0,2.0,89,0.00,,,0.00,64.000000,,2013-07-29 13:04:00,
2013-07-29 09:05:00,70.0,58.0,-100.00,ENE,69,3.0,5.0,66,0.00,,,0.00,317.000000,,2013-07-29 13:05:00,
2013-07-29 09:45:00,70.0,58.0,-100.00,ENE,69,3.0,5.0,66,0.00,,,0.00,317.000000,,2013-07-29 13:45:00,
2013-07-29 09:57:00,70.0,58.0,-100.00,ENE,69,3.0,5.0,66,0.00,,,0.00,317.000000,,2013-07-29 13:57:00,
2013-07-29 10:05:00,72.0,57.0,-100.00,NE,56,4.0,7.0,60,0.00,,,0.00,500.000000,,2013-07-29 14:05:00,
2013-07-29 10:37:00,72.0,57.0,-100.00,NE,56,4.0,7.0,60,0.00,,,0.00,500.000000,,2013-07-29 14:37:00,
2013-07-29 10:48:00,72.0,57.0,-100.00,NE,56,4.0,7.0,60,0.00,,,0.00,500.000000,,2013-07-29 14:48:00,
2013-07-29 10:57:00,72.0,57.0,-100.00,NE,56,4.0,7.0,60,0.00,,,0.00,500.000000,,2013-07-29 14:57:00,
2013-07-29 11:05:00,74.0,57.0,-100.00,ENE,68,3.0,9.0,55,0.00,,,0.00,653.000000,,2013-07-29 15:05:00,
2013-07-29 11:46:00,74.0,57.0,-100.00,ENE,68,3.0,9.0,55,0.00,,,0.00,653.000000,,2013-07-29 15:46:00,
2013-07-29 12:05:00,76.0,59.0,-100.00,NE,55,5.0,8.0,55,0.00,,,0.00,790.000000,,2013-07-29 16:05:00,
2013-07-29 12:42:00,76.0,59.0,-100.00,NE,55,5.0,8.0,55,0.00,,,0.00,790.000000,,2013-07-29 16:42:00,
2013-07-29 12:48:00,76.0,59.0,-100.00,NE,55,5.0,8.0,55,0.00,,,0.00,790.000000,,2013-07-29 16:48:00,
2013-07-29 12:58:00,76.0,59.0,-100.00,NE,55,5.0,8.0,55,0.00,,,0.00,790.000000,,2013-07-29 16:58:00,
2013-07-29 13:05:00,78.0,56.0,-100.00,NNW,341,3.0,7.0,47,0.00,,,0.00,868.000000,,2013-07-29 17:05:00,
2013-07-29 13:43:00,78.0,56.0,-100.00,NNW,341,3.0,7.0,47,0.00,,,0.00,868.000000,,2013-07-29 17:43:00,
2013-07-29 14:00:00,78.0,56.0,-100.00,NNW,341,3.0,7.0,47,0.00,,,0.00,868.000000,,2013-07-29 18:00:00,
2013-07-29 14:05:00,78.0,53.0,-100.00,ENE,68,3.0,7.0,42,0.00,,,0.00,894.000000,,2013-07-29 18:05:00,
2013-07-29 14:47:00,78.0,53.0,-100.00,ENE,68,3.0,7.0,42,0.00,,,0.00,894.000000,,2013-07-29 18:47:00,
2013-07-29 15:00:00,78.0,53.0,-100.00,ENE,68,3.0,7.0,42,0.00,,,0.00,894.000000,,2013-07-29 19:00:00,
2013-07-29 15:05:00,80.0,53.0,-100.00,NE,52,4.0,9.0,39,0.00,,,0.00,861.000000,,2013-07-29 19:05:00,
2013-07-29 15:40:00,80.0,53.0,-100.00,NE,52,4.0,9.0,39,0.00,,,0.00,861.000000,,2013-07-29 19:40:00,
2013-07-29 15:48:00,80.0,53.0,-100.00,NE,52,4.0,9.0,39,0.00,,,0.00,861.000000,,2013-07-29 19:48:00,
2013-07-29 16:05:00,80.0,53.0,-100.00,WSW,249,4.0,9.0,39,0.00,,,0.00,735.000000,,2013-07-29 20:05:00,
2013-07-29 16:49:00,80.0,53.0,-100.00,WSW,249,4.0,9.0,39,0.00,,,0.00,735.000000,,2013-07-29 20:49:00,
2013-07-29 16:58:00,80.0,53.0,-100.00,WSW,249,4.0,9.0,39,0.00,,,0.00,735.000000,,2013-07-29 20:58:00,
2013-07-29 17:49:00,81.0,54.0,-100.00,WNW,300,2.0,6.0,40,0.00,,,0.00,604.000000,,2013-07-29 21:49:00,
2013-07-29 18:00:00,81.0,54.0,-100.00,WNW,300,2.0,6.0,40,0.00,,,0.00,604.000000,,2013-07-29 22:00:00,
2013-07-29 18:05:00,83.0,56.0,-100.00,West,271,2.0,7.0,40,0.00,,,0.00,509.000000,,2013-07-29 22:05:00,
2013-07-29 18:39:00,83.0,56.0,-100.00,West,271,2.0,7.0,40,0.00,,,0.00,509.000000,,2013-07-29 22:39:00,
2013-07-29 18:47:00,83.0,56.0,-100.00,West,271,2.0,7.0,40,0.00,,,0.00,509.000000,,2013-07-29 22:47:00,
2013-07-29 18:57:00,83.0,56.0,-100.00,West,271,2.0,7.0,40,0.00,,,0.00,509.000000,,2013-07-29 22:57:00,
2013-07-29 19:05:00,80.0,55.0,-100.00,WNW,298,2.0,6.0,43,0.00,,,0.00,286.000000,,2013-07-29 23:05:00,
2013-07-29 19:36:00,80.0,55.0,-100.00,WNW,298,2.0,6.0,43,0.00,,,0.00,286.000000,,2013-07-29 23:36:00,
2013-07-29 19:58:00,80.0,55.0,-100.00,WNW,298,2.0,6.0,43,0.00,,,0.00,286.000000,,2013-07-29 23:58:00,
2013-07-29 20:05:00,73.0,57.0,-100.00,West,268,2.0,3.0,58,0.00,,,0.00,61.000000,,2013-07-30 00:05:00,
2013-07-29 20:35:00,73.0,57.0,-100.00,West,268,2.0,3.0,58,0.00,,,0.00,61.000000,,2013-07-30 00:35:00,
2013-07-29 20:51:00,73.0,57.0,-100.00,West,268,2.0,3.0,58,0.00,,,0.00,61.000000,,2013-07-30 00:51:00,
2013-07-29 21:05:00,69.0,60.0,-100.00,West,259,0.0,3.0,74,0.00,,,0.00,11.000000,,2013-07-30 01:05:00,
2013-07-29 22:05:00,66.0,61.0,-100.00,SSW,207,0.0,2.0,84,0.00,,,0.00,0.000000,,2013-07-30 02:05:00,
2013-07-29 22:39:00,66.0,61.0,-100.00,SSW,207,0.0,2.0,84,0.00,,,0.00,0.000000,,2013-07-30 02:39:00,
2013-07-29 22:47:00,66.0,61.0,-100.00,SSW,207,0.0,2.0,84,0.00,,,0.00,0.000000,,2013-07-30 02:47:00,
2013-07-29 22:57:00,66.0,61.0,-100.00,SSW,207,0.0,2.0,84,0.00,,,0.00,0.000000,,2013-07-30 02:57:00,
2013-07-29 23:48:00,64.0,60.0,-100.00,WSW,239,1.0,3.0,88,0.00,,,0.00,0.000000,,2013-07-30 03:48:00,
2013-07-29 23:56:00,64.0,60.0,-100.00,WSW,239,1.0,3.0,88,0.00,,,0.00,0.000000,,2013-07-30 03:56:00,